カタログに戻る

RSW-02

運用中軍事PO
NORAD 49114·PAYLOAD·🇨🇳 China

打ち上げ Aug 24, 2021 から Jiuquan Satellite Launch Center

Loading…

次のパス (今後24時間)

TLE

最新Source: Space-Track

元期: Sep 14, 2026, 14:29 UTC

1 49114U 21076C   26257.60373043 -.00000068  00000-0 -14768-3 0  9998
2 49114  86.4078 125.8859 0018774 166.6977 193.4666 13.42858845247883

AllMySatでRSW-02をリアルタイム追跡

Download on the App Store